KG7KID-6 Weather Reports


Display with metric or nautical units.
time (UTC)temp
F
wind
direction
speed
MPH
gust
MPH
rain 1hr
in
rain 24hr
in
rain mn
in
humidity
%
barometer
mb
20201031223806 82 313 1.0 4.0 0.00 0.00 0.00 12 935.2
20201031223303 82 308 1.0 4.0 0.00 0.00 0.00 11 935.2
20201031222803 82 0 0.0 4.0 0.00 0.00 0.00 12 935.1
20201031222306 82 68 2.0 4.0 0.00 0.00 0.00 11 935.2
20201031221806 82 0 0.0 5.0 0.00 0.00 0.00 11 935.2
20201031221302 82 0 0.0 5.0 0.00 0.00 0.00 11 935.1
20201031220804 82 0 0.0 4.0 0.00 0.00 0.00 11 935.2
20201031220307 83 0 0.0 5.0 0.00 0.00 0.00 11 935.2
20201031215307 83 0 0.0 5.0 0.00 0.00 0.00 11 935.1
20201031214802 83 0 0.0 5.0 0.00 0.00 0.00 11 935.1
20201031214307 83 0 0.0 6.0 0.00 0.00 0.00 11 935.2
20201031213811 83 225 3.0 6.0 0.00 0.00 0.00 11 935.1
20201031213305 82 0 0.0 5.0 0.00 0.00 0.00 11 935.3
20201031212803 82 143 3.0 6.0 0.00 0.00 0.00 11 935.3
20201031212308 82 195 3.0 7.0 0.00 0.00 0.00 12 935.3
20201031211814 82 205 3.0 7.0 0.00 0.00 0.00 12 935.3
20201031211314 81 163 2.0 7.0 0.00 0.00 0.00 13 935.3
20201031210808 81 0 0.0 6.0 0.00 0.00 0.00 13 935.4
20201031210310 81 0 0.0 8.0 0.00 0.00 0.00 13 935.5
20201031205306 81 0 0.0 6.0 0.00 0.00 0.00 13 935.6
20201031204337 80 219 1.0 6.0 0.00 0.00 0.00 14 935.7
20201031203850 80 208 1.0 7.0 0.00 0.00 0.00 13 935.8
20201031203344 79 212 3.0 7.0 0.00 0.00 0.00 14 935.9
20201031202837 79 212 4.0 7.0 0.00 0.00 0.00 14 935.9
20201031202341 79 204 1.0 3.0 0.00 0.00 0.00 14 935.9
20201031201838 79 0 0.0 2.0 0.00 0.00 0.00 14 936.0
20201031201338 79 0 0.0 2.0 0.00 0.00 0.00 14 936.1
20201031200839 78 0 0.0 4.0 0.00 0.00 0.00 14 936.2
20201031200347 78 324 1.0 5.0 0.00 0.00 0.00 15 936.3
20201031195838 78 330 1.0 5.0 0.00 0.00 0.00 15 936.4
20201031194838 77 0 0.0 2.0 0.00 0.00 0.00 16 936.5
20201031193850 76 196 1.0 5.0 0.00 0.00 0.00 16 936.8
20201031193336 75 164 1.0 4.0 0.00 0.00 0.00 17 936.8
20201031192835 74 151 1.0 4.0 0.00 0.00 0.00 17 936.8
20201031192337 74 156 2.0 4.0 0.00 0.00 0.00 17 937.0
20201031191838 74 348 1.0 4.0 0.00 0.00 0.00 17 937.1
20201031191338 73 0 0.0 6.0 0.00 0.00 0.00 18 937.2
20201031190836 72 92 2.0 6.0 0.00 0.00 0.00 18 937.2
20201031190335 72 0 0.0 6.0 0.00 0.00 0.00 18 937.4
20201031185836 72 139 1.0 5.0 0.00 0.00 0.00 19 937.5
20201031185341 71 124 1.0 6.0 0.00 0.00 0.00 20 937.6
20201031184836 70 179 2.0 8.0 0.00 0.00 0.00 20 937.8
20201031184335 70 160 2.0 8.0 0.00 0.00 0.00 20 937.8
20201031183839 70 182 3.0 6.0 0.00 0.00 0.00 20 937.9
20201031183338 69 171 2.0 6.0 0.00 0.00 0.00 21 938.0
20201031182835 69 181 1.0 5.0 0.00 0.00 0.00 21 938.1
20201031182336 68 0 0.0 7.0 0.00 0.00 0.00 21 938.1
20201031181838 68 163 3.0 7.0 0.00 0.00 0.00 21 938.1
20201031181337 68 114 1.0 4.0 0.00 0.00 0.00 21 938.2
20201031180838 67 98 1.0 4.0 0.00 0.00 0.00 22 938.2
20201031180338 67 118 1.0 4.0 0.00 0.00 0.00 22 938.2
20201031175836 65 0 0.0 3.0 0.00 0.00 0.00 23 938.3
20201031175337 65 0 0.0 4.0 0.00 0.00 0.00 23 938.4
20201031174839 64 0 0.0 6.0 0.00 0.00 0.00 23 938.4
20201031174339 64 178 3.0 6.0 0.00 0.00 0.00 23 938.5
20201031173702 63 0 0.0 3.0 0.00 0.00 0.00 24 938.5
20201031173202 63 0 0.0 3.0 0.00 0.00 0.00 25 938.5
20201031172659 62 0 0.0 3.0 0.00 0.00 0.00 25 938.6
20201031172159 61 191 1.0 3.0 0.00 0.00 0.00 26 938.6
20201031171258 59 0 0.0 3.0 0.00 0.00 0.00 27 938.8
20201031170627 58 181 1.0 5.0 0.00 0.00 0.00 28 938.9
20201031170131 58 0 0.0 2.0 0.00 0.00 0.00 29 939.1
20201031165625 57 0 0.0 5.0 0.00 0.00 0.00 29 939.2
20201031165123 56 0 0.0 5.0 0.00 0.00 0.00 29 939.4
20201031164627 56 0 0.0 5.0 0.00 0.00 0.00 30 939.5
20201031164124 55 105 1.0 4.0 0.00 0.00 0.00 31 939.5
20201031163624 54 0 0.0 3.0 0.00 0.00 0.00 32 939.6
20201031162720 52 0 0.0 3.0 0.00 0.00 0.00 34 939.8
20201031162219 51 0 0.0 3.0 0.00 0.00 0.00 35 940.0
20201031161720 49 0 0.0 2.0 0.00 0.00 0.00 37 940.1
20201031161219 47 0 0.0 2.0 0.00 0.00 0.00 38 940.2
20201031160721 46 0 0.0 3.0 0.00 0.00 0.00 39 940.1
20201031160230 45 0 0.0 4.0 0.00 0.00 0.00 39 940.2
20201031155721 45 24 1.0 4.0 0.00 0.00 0.00 39 940.1
20201031154735 45 0 0.0 2.0 0.00 0.00 0.00 40 940.0
20201031154235 45 0 0.0 2.0 0.00 0.00 0.00 40 939.9
20201031153736 45 0 0.0 2.0 0.00 0.00 0.00 41 939.9
20201031153236 44 0 0.0 3.0 0.00 0.00 0.00 40 940.0
20201031152735 44 22 1.0 3.0 0.00 0.00 0.00 41 939.9
20201031152239 44 0 0.0 2.0 0.00 0.00 0.00 41 939.8
20201031151739 0 0 0.0 2.0 0.00 0.00 0.00 42 939.8
20201031151734 44 0 0.0 2.0 0.00 0.00 0.00 42 939.8
20201031151234 44 0 0.0 2.0 0.00 0.00 0.00 42 939.6
20201031145927 43 0 0.0 3.0 0.00 0.00 0.00 43 939.5
20201031145421 43 0 0.0 3.0 0.00 0.00 0.00 43 939.3
20201031144424 43 0 0.0 3.0 0.00 0.00 0.00 42 939.3
20201031143921 43 0 0.0 5.0 0.00 0.00 0.00 43 939.1
20201031142922 42 31 2.0 4.0 0.00 0.00 0.00 44 939.0
20201031142420 42 0 0.0 3.0 0.00 0.00 0.00 44 938.9
20201031141420 41 33 1.0 2.0 0.00 0.00 0.00 44 938.8
20201031140924 41 0 0.0 3.0 0.00 0.00 0.00 44 938.8
20201031135921 42 0 0.0 3.0 0.00 0.00 0.00 43 938.6
20201031135423 42 0 0.0 2.0 0.00 0.00 0.00 44 938.6
20201031134922 41 0 0.0 4.0 0.00 0.00 0.00 45 938.6
20201031134421 41 30 2.0 4.0 0.00 0.00 0.00 45 938.6
20201031133920 41 33 2.0 3.0 0.00 0.00 0.00 44 938.5
20201031133437 41 0 0.0 2.0 0.00 0.00 0.00 43 938.4
20201031132926 41 34 1.0 5.0 0.00 0.00 0.00 44 938.4
20201031132422 41 35 1.0 5.0 0.00 0.00 0.00 44 938.5
20201031131928 41 21 2.0 4.0 0.00 0.00 0.00 44 938.5
20201031130933 41 19 1.0 3.0 0.00 0.00 0.00 43 938.4
20201031130439 41 21 1.0 3.0 0.00 0.00 0.00 43 938.3
20201031125934 41 0 0.0 3.0 0.00 0.00 0.00 43 938.3
20201031125449 41 0 0.0 3.0 0.00 0.00 0.00 43 938.3
20201031124933 41 0 0.0 4.0 0.00 0.00 0.00 44 938.3
20201031124435 41 17 1.0 4.0 0.00 0.00 0.00 44 938.2
20201031123940 41 17 1.0 3.0 0.00 0.00 0.00 45 938.0
20201031123433 41 0 0.0 3.0 0.00 0.00 0.00 44 938.0
20201031122944 41 18 1.0 3.0 0.00 0.00 0.00 44 937.9
20201031122445 42 18 1.0 3.0 0.00 0.00 0.00 42 937.9
20201031121935 42 0 0.0 4.0 0.00 0.00 0.00 42 937.8
20201031121440 43 19 1.0 4.0 0.00 0.00 0.00 41 937.7
20201031120940 43 20 1.0 3.0 0.00 0.00 0.00 42 937.7
20201031120437 43 0 0.0 3.0 0.00 0.00 0.00 42 937.7
20201031115936 42 20 1.0 3.0 0.00 0.00 0.00 42 937.6
20201031115436 42 0 0.0 3.0 0.00 0.00 0.00 42 937.6
20201031114935 42 0 0.0 3.0 0.00 0.00 0.00 42 937.6
20201031113933 43 32 1.0 4.0 0.00 0.00 0.00 41 937.4
20201031113437 43 0 0.0 4.0 0.00 0.00 0.00 42 937.7
20201031112935 42 36 2.0 4.0 0.00 0.00 0.00 42 937.6
20201031112438 42 0 0.0 5.0 0.00 0.00 0.00 42 937.5
20201031111954 42 21 1.0 5.0 0.00 0.00 0.00 41 937.4
20201031111339 42 16 2.0 4.0 0.00 0.00 0.00 42 937.3
20201031105843 43 14 1.0 4.0 0.00 0.00 0.00 40 937.2
20201031104333 43 0 0.0 3.0 0.00 0.00 0.00 41 937.1
20201031103836 43 19 1.0 4.0 0.00 0.00 0.00 40 936.9
20201031103335 44 21 1.0 5.0 0.00 0.00 0.00 39 937.0
20201031102835 44 3 2.0 5.0 0.00 0.00 0.00 39 936.9
20201031102338 44 351 2.0 4.0 0.00 0.00 0.00 39 937.0
20201031101836 45 13 1.0 3.0 0.00 0.00 0.00 38 936.9
20201031101333 45 13 1.0 4.0 0.00 0.00 0.00 37 936.9
20201031100833 45 14 1.0 4.0 0.00 0.00 0.00 38 936.9
20201031100335 45 14 1.0 3.0 0.00 0.00 0.00 38 936.8
20201031095923 45 14 1.0 5.0 0.00 0.00 0.00 39 936.7
20201031095832 45 14 1.0 5.0 0.00 0.00 0.00 39 936.7
20201031095334 45 16 1.0 5.0 0.00 0.00 0.00 39 936.7
20201031094847 44 9 1.0 3.0 0.00 0.00 0.00 39 936.7
20201031094336 44 8 2.0 3.0 0.00 0.00 0.00 39 936.8
20201031093840 44 8 1.0 3.0 0.00 0.00 0.00 39 936.8
20201031092851 44 14 1.0 5.0 0.00 0.00 0.00 40 936.9
20201031092350 43 2 2.0 5.0 0.00 0.00 0.00 39 936.9
20201031091856 44 349 2.0 4.0 0.00 0.00 0.00 39 936.9
20201031090858 45 4 1.0 3.0 0.00 0.00 0.00 38 936.9
20201031090358 45 4 2.0 3.0 0.00 0.00 0.00 38 936.8
20201031085756 45 5 1.0 3.0 0.00 0.00 0.00 38 936.8
20201031084759 45 355 1.0 4.0 0.00 0.00 0.00 38 936.7
20201031084339 45 354 2.0 4.0 0.00 0.00 0.00 37 936.8
20201031084254 45 354 2.0 4.0 0.00 0.00 0.00 37 936.8
20201031083754 46 349 1.0 4.0 0.00 0.00 0.00 36 936.8
20201031083254 47 350 1.0 4.0 0.00 0.00 0.00 35 936.8
20201031082759 47 350 1.0 4.0 0.00 0.00 0.00 35 936.7
20201031082254 48 350 1.0 4.0 0.00 0.00 0.00 34 936.6
20201031081831 48 0 0.0 3.0 0.00 0.00 0.00 34 936.6
20201031081807 48 0 0.0 3.0 0.00 0.00 0.00 34 936.6
20201031081301 49 0 0.0 3.0 0.00 0.00 0.00 34 936.7
20201031080757 49 350 1.0 3.0 0.00 0.00 0.00 34 936.6
20201031080255 49 0 0.0 3.0 0.00 0.00 0.00 34 936.6
20201031075800 48 350 1.0 4.0 0.00 0.00 0.00 34 936.5
20201031075253 49 350 1.0 4.0 0.00 0.00 0.00 34 936.5
20201031074754 49 0 0.0 2.0 0.00 0.00 0.00 33 936.5
20201031074255 49 0 0.0 2.0 0.00 0.00 0.00 34 936.5
20201031073754 49 0 0.0 2.0 0.00 0.00 0.00 34 936.5
20201031073254 49 0 0.0 2.0 0.00 0.00 0.00 34 936.4
20201031072755 49 0 0.0 3.0 0.00 0.00 0.00 33 936.4
20201031072300 49 349 1.0 4.0 0.00 0.00 0.00 33 936.3
20201031071756 49 348 2.0 4.0 0.00 0.00 0.00 33 936.3
20201031071255 49 331 1.0 3.0 0.00 0.00 0.00 33 936.3
20201031070756 49 0 0.0 3.0 0.00 0.00 0.00 33 936.2
20201031070253 49 0 0.0 2.0 0.00 0.00 0.00 33 936.1
20201031065753 49 0 0.0 2.0 0.00 0.00 0.00 33 936.3
20201031065255 50 0 0.0 2.0 0.00 0.00 0.00 32 936.3
20201031064759 50 0 0.0 4.0 0.00 0.00 0.00 32 936.3
20201031064256 51 332 1.0 4.0 0.00 0.00 0.00 31 936.4
20201031063842 51 11 1.0 3.0 0.00 0.00 0.00 32 936.4
20201031063755 51 11 1.0 3.0 0.00 0.00 0.00 32 936.4
20201031063258 51 0 0.0 5.0 0.00 0.00 0.00 31 936.3
20201031062753 51 37 1.0 5.0 0.00 0.00 0.00 31 936.3
20201031062256 51 50 1.0 4.0 0.00 0.00 0.00 31 936.3
20201031061756 51 52 1.0 4.0 0.00 0.00 0.00 31 936.2
20201031061036 52 53 1.0 3.0 0.00 0.00 0.00 31 936.1
20201031060021 52 53 1.0 2.0 0.00 0.00 0.00 31 936.1
20201031055513 51 53 1.0 2.0 0.00 0.00 0.00 31 936.3
20201031055022 51 0 0.0 2.0 0.00 0.00 0.00 31 936.2
20201031054517 52 0 0.0 2.0 0.00 0.00 0.00 31 936.2
20201031054012 53 0 0.0 3.0 0.00 0.00 0.00 29 936.2
20201031053025 54 0 0.0 3.0 0.00 0.00 0.00 29 936.2
20201031052528 54 0 0.0 2.0 0.00 0.00 0.00 30 936.2
20201031052018 53 0 0.0 3.0 0.00 0.00 0.00 30 936.4
20201031051517 53 54 1.0 5.0 0.00 0.00 0.00 30 936.3
20201031051020 53 40 1.0 7.0 0.00 0.00 0.00 30 936.2
20201031050514 53 19 3.0 8.0 0.00 0.00 0.00 30 936.1
20201031050020 53 18 4.0 8.0 0.00 0.00 0.00 30 936.0
20201031045523 53 21 4.0 7.0 0.00 0.00 0.00 29 936.0
20201031044658 54 23 6.0 9.0 0.00 0.00 0.00 28 935.8
20201031044159 55 27 3.0 9.0 0.00 0.00 0.00 28 935.7
20201031043657 55 25 6.0 9.0 0.00 0.00 0.00 28 935.7
20201031043156 56 30 4.0 8.0 0.00 0.00 0.00 27 935.6
20201031042704 56 29 4.0 8.0 0.00 0.00 0.00 27 935.5
20201031042156 56 26 5.0 8.0 0.00 0.00 0.00 27 935.3
20201031041704 57 19 4.0 8.0 0.00 0.00 0.00 27 935.3
20201031041157 57 23 4.0 8.0 0.00 0.00 0.00 27 935.3
20201031040658 57 29 3.0 6.0 0.00 0.00 0.00 27 935.2
20201031040158 57 27 3.0 9.0 0.00 0.00 0.00 27 935.1
20201031035701 57 23 4.0 9.0 0.00 0.00 0.00 27 935.0
20201031035156 58 26 4.0 8.0 0.00 0.00 0.00 27 935.1
20201031034701 57 27 5.0 8.0 0.00 0.00 0.00 27 935.0
20201031034157 57 20 4.0 8.0 0.00 0.00 0.00 27 935.0
20201031033657 58 15 3.0 7.0 0.00 0.00 0.00 27 935.0
20201031033156 58 16 4.0 7.0 0.00 0.00 0.00 27 935.0
20201031032656 59 18 4.0 7.0 0.00 0.00 0.00 27 934.9
20201031032156 59 25 3.0 5.0 0.00 0.00 0.00 27 934.9
20201031031657 59 25 3.0 4.0 0.00 0.00 0.00 26 934.8
20201031030820 60 26 3.0 6.0 0.00 0.00 0.00 27 934.6
20201031025629 61 23 3.0 5.0 0.00 0.00 0.00 26 934.6
20201031024633 61 25 1.0 7.0 0.00 0.00 0.00 26 934.4
20201031024134 62 27 3.0 7.0 0.00 0.00 0.00 26 934.4
20201031023630 62 312 2.0 5.0 0.00 0.00 0.00 25 934.4
20201031023136 63 231 1.0 3.0 0.00 0.00 0.00 25 934.3
20201031022631 63 0 0.0 2.0 0.00 0.00 0.00 25 934.3
20201031022135 64 0 0.0 3.0 0.00 0.00 0.00 24 934.2
20201031021631 64 190 1.0 3.0 0.00 0.00 0.00 24 934.1
20201031021134 66 0 0.0 0.0 0.00 0.00 0.00 23 934.0
20201031020632 66 0 0.0 0.0 0.00 0.00 0.00 23 934.0
20201031020130 67 0 0.0 2.0 0.00 0.00 0.00 23 933.8
20201031015634 67 0 0.0 3.0 0.00 0.00 0.00 23 933.7
20201031015134 67 0 0.0 3.0 0.00 0.00 0.00 23 933.7
20201031014629 67 188 1.0 4.0 0.00 0.00 0.00 22 933.6
20201031014129 67 172 2.0 4.0 0.00 0.00 0.00 22 933.5
20201031013632 67 0 0.0 1.0 0.00 0.00 0.00 22 933.4
20201031013132 67 0 0.0 0.0 0.00 0.00 0.00 22 933.3
20201031012630 67 0 0.0 1.0 0.00 0.00 0.00 21 933.3
20201031012130 68 0 0.0 1.0 0.00 0.00 0.00 21 933.2
20201031011635 69 0 0.0 0.0 0.00 0.00 0.00 20 933.0
20201031011129 70 0 0.0 0.0 0.00 0.00 0.00 19 932.9
20201031010635 71 0 0.0 1.0 0.00 0.00 0.00 20 932.8
20201031010148 71 0 0.0 1.0 0.00 0.00 0.00 19 932.7
20201031005338 72 163 1.0 2.0 0.00 0.00 0.00 18 932.6
20201031004837 72 162 1.0 2.0 0.00 0.00 0.00 18 932.6
20201031004336 73 162 1.0 2.0 0.00 0.00 0.00 18 932.5
20201031003850 73 0 0.0 0.0 0.00 0.00 0.00 17 932.4
20201031003337 74 0 0.0 0.0 0.00 0.00 0.00 17 932.4
20201031002844 75 0 0.0 0.0 0.00 0.00 0.00 17 932.3
20201031002337 76 0 0.0 0.0 0.00 0.00 0.00 16 932.3
20201031001543 77 0 0.0 2.0 0.00 0.00 0.00 16 932.3
20201031001020 78 0 0.0 2.0 0.00 0.00 0.00 15 932.2
20201031000522 79 0 0.0 0.0 0.00 0.00 0.00 15 932.1
20201031000028 79 0 0.0 0.0 0.00 0.00 0.00 15 932.2
20201030235332 80 0 0.0 0.0 0.00 0.00 0.00 14 932.0
20201030235129 80 0 0.0 0.0 0.00 0.00 0.00 14 932.0
20201030234629 80 0 0.0 0.0 0.00 0.00 0.00 14 932.0
20201030233628 80 0 0.0 2.0 0.00 0.00 0.00 14 932.0
20201030233130 80 0 0.0 1.0 0.00 0.00 0.00 14 932.0
20201030232629 80 0 0.0 3.0 0.00 0.00 0.00 14 932.0
20201030232129 79 0 0.0 3.0 0.00 0.00 0.00 15 932.0
20201030231648 79 0 0.0 4.0 0.00 0.00 0.00 14 932.0
20201030231130 80 124 1.0 6.0 0.00 0.00 0.00 14 932.0
20201030230632 81 134 3.0 6.0 0.00 0.00 0.00 14 932.0
20201030230131 81 0 0.0 2.0 0.00 0.00 0.00 14 932.0
20201030225632 81 0 0.0 3.0 0.00 0.00 0.00 14 932.0
20201030225134 80 0 0.0 3.0 0.00 0.00 0.00 14 932.1
20201030224628 80 0 0.0 3.0 0.00 0.00 0.00 14 932.1
20201030224134 79 0 0.0 4.0 0.00 0.00 0.00 14 932.3